Year,Month,Day,Hour,Minute,Value (Times are PST for temperature in C)
2015,06,18,10,29,19.50
2015,06,18,10,30,19.40
2015,06,18,10,31,19.40
2015,06,18,10,32,19.50
2015,06,18,10,33,19.50
2015,06,18,10,34,19.40
2015,06,18,10,35,19.40
2015,06,18,10,36,19.40
2015,06,18,10,37,19.40
2015,06,18,10,38,19.30
2015,06,18,10,39,19.20
2015,06,18,10,40,19.10
2015,06,18,10,41,19.10
2015,06,18,10,42,19.10
2015,06,18,10,43,19.10
2015,06,18,10,44,19.10
2015,06,18,10,45,19.10
2015,06,18,10,46,19.10
2015,06,18,10,47,19.10
2015,06,18,10,48,19.10
2015,06,18,10,49,19.00
2015,06,18,10,50,18.90
2015,06,18,10,51,18.90
2015,06,18,10,52,18.90
2015,06,18,10,53,18.90
2015,06,18,10,54,18.90
2015,06,18,10,55,18.90
2015,06,18,10,56,18.90
2015,06,18,10,57,19.00
2015,06,18,10,58,19.10
2015,06,18,10,59,19.10
2015,06,18,11,00,19.30
2015,06,18,11,01,19.40
2015,06,18,11,02,19.40
2015,06,18,11,03,19.50
2015,06,18,11,04,19.50
2015,06,18,11,05,19.50
2015,06,18,11,06,19.50
2015,06,18,11,07,19.50
2015,06,18,11,08,19.50
2015,06,18,11,09,19.60
2015,06,18,11,10,19.60
2015,06,18,11,11,19.70
2015,06,18,11,12,19.70
2015,06,18,11,13,19.80
2015,06,18,11,14,19.80
2015,06,18,11,15,19.70
2015,06,18,11,16,19.60
2015,06,18,11,17,19.70
2015,06,18,11,18,19.70
2015,06,18,11,19,19.60
2015,06,18,11,20,19.60
2015,06,18,11,21,19.60
2015,06,18,11,22,19.60
2015,06,18,11,23,19.40
2015,06,18,11,24,19.40
2015,06,18,11,25,19.30
2015,06,18,11,26,19.30
2015,06,18,11,27,19.30
2015,06,18,11,28,19.30
2015,06,18,11,29,19.40
2015,06,18,11,30,19.50
2015,06,18,11,31,19.50
2015,06,18,11,32,19.60
2015,06,18,11,33,19.70
2015,06,18,11,34,19.80
2015,06,18,11,35,19.90
2015,06,18,11,36,20.00
2015,06,18,11,37,20.10
2015,06,18,11,38,20.20
2015,06,18,11,39,20.20
2015,06,18,11,40,20.30
2015,06,18,11,41,20.40
2015,06,18,11,42,20.50
2015,06,18,11,43,20.50
2015,06,18,11,44,20.60
2015,06,18,11,45,20.60
2015,06,18,11,46,20.80
2015,06,18,11,47,21.00
2015,06,18,11,48,21.20
2015,06,18,11,49,21.40
2015,06,18,11,50,21.60
2015,06,18,11,51,21.70
2015,06,18,11,52,21.90
2015,06,18,11,53,22.00
2015,06,18,11,54,22.10
2015,06,18,11,55,22.10
2015,06,18,11,56,22.10
2015,06,18,11,57,22.20
2015,06,18,11,58,22.20
2015,06,18,11,59,22.30
2015,06,18,12,00,22.40
2015,06,18,12,01,22.40
2015,06,18,12,02,22.40
2015,06,18,12,03,22.40
2015,06,18,12,04,22.30
2015,06,18,12,05,22.40
2015,06,18,12,06,22.50
2015,06,18,12,07,22.50
2015,06,18,12,08,22.40
2015,06,18,12,09,22.30
2015,06,18,12,10,22.30
2015,06,18,12,11,22.20
2015,06,18,12,12,22.20
2015,06,18,12,13,22.30
2015,06,18,12,14,22.30
2015,06,18,12,15,22.30
2015,06,18,12,16,22.50
2015,06,18,12,17,22.50
2015,06,18,12,18,22.50
2015,06,18,12,19,22.60
2015,06,18,12,20,22.60
2015,06,18,12,21,22.60
2015,06,18,12,22,22.60
2015,06,18,12,23,22.70
2015,06,18,12,24,22.80
2015,06,18,12,25,22.90
2015,06,18,12,26,22.90
2015,06,18,12,27,22.90
2015,06,18,12,28,22.90
2015,06,18,12,29,22.90
2015,06,18,12,30,23.00
2015,06,18,12,31,23.10
2015,06,18,12,32,23.10
2015,06,18,12,33,23.00
2015,06,18,12,34,22.90
2015,06,18,12,35,22.70
2015,06,18,12,36,22.70
2015,06,18,12,37,22.80
2015,06,18,12,38,22.80
2015,06,18,12,39,22.90
2015,06,18,12,40,22.90
2015,06,18,12,41,22.90
2015,06,18,12,42,22.80
2015,06,18,12,43,22.70
2015,06,18,12,44,22.60
2015,06,18,12,45,22.40
2015,06,18,12,46,22.30
2015,06,18,12,47,22.20
2015,06,18,12,48,22.00
2015,06,18,12,49,21.90
2015,06,18,12,50,22.10
2015,06,18,12,51,22.20
2015,06,18,12,52,22.30
2015,06,18,12,53,22.30
2015,06,18,12,54,22.30
2015,06,18,12,55,22.20
2015,06,18,12,56,22.20
2015,06,18,12,57,22.00
2015,06,18,12,58,22.00
2015,06,18,12,59,22.00
2015,06,18,13,00,22.00
2015,06,18,13,01,22.10
2015,06,18,13,02,21.90
2015,06,18,13,03,21.80
2015,06,18,13,04,21.80
2015,06,18,13,05,21.80
2015,06,18,13,06,21.70
2015,06,18,13,07,21.60
2015,06,18,13,08,21.60
2015,06,18,13,09,21.60
2015,06,18,13,10,21.60
2015,06,18,13,11,21.60
2015,06,18,13,12,21.70
2015,06,18,13,13,21.70
2015,06,18,13,14,21.70
2015,06,18,13,15,21.80
2015,06,18,13,16,21.90
2015,06,18,13,17,21.90
2015,06,18,13,18,21.90
2015,06,18,13,19,21.90
2015,06,18,13,20,21.80
2015,06,18,13,21,21.70
2015,06,18,13,22,21.70
2015,06,18,13,23,21.70
2015,06,18,13,24,21.80
2015,06,18,13,25,21.90
2015,06,18,13,26,22.00
2015,06,18,13,27,21.90
2015,06,18,13,28,21.80
2015,06,18,13,29,21.70
2015,06,18,13,30,21.60
2015,06,18,13,31,21.50
2015,06,18,13,32,21.40
2015,06,18,13,33,21.40
2015,06,18,13,34,21.40
2015,06,18,13,35,21.50
2015,06,18,13,36,21.60
2015,06,18,13,37,21.60
2015,06,18,13,38,21.60
2015,06,18,13,39,21.60
2015,06,18,13,40,21.60
2015,06,18,13,41,21.60
2015,06,18,13,42,21.60
2015,06,18,13,43,21.60
2015,06,18,13,44,21.60
2015,06,18,13,45,21.60
2015,06,18,13,46,21.60
2015,06,18,13,47,21.50
2015,06,18,13,48,21.40
2015,06,18,13,49,21.40
2015,06,18,13,50,21.40
2015,06,18,13,51,21.50
2015,06,18,13,52,21.60
2015,06,18,13,53,21.60
2015,06,18,13,54,21.60
2015,06,18,13,55,21.70
2015,06,18,13,56,21.90
2015,06,18,13,57,21.90
2015,06,18,13,58,21.80
2015,06,18,13,59,21.70
2015,06,18,14,00,21.70
2015,06,18,14,01,21.70
2015,06,18,14,02,21.50
2015,06,18,14,03,21.30
2015,06,18,14,04,21.30
2015,06,18,14,05,21.30
2015,06,18,14,06,21.30
2015,06,18,14,07,21.30
2015,06,18,14,08,21.30
2015,06,18,14,09,21.10
2015,06,18,14,10,21.00
2015,06,18,14,11,20.90
2015,06,18,14,12,20.90
2015,06,18,14,13,20.80
2015,06,18,14,14,20.70
2015,06,18,14,15,20.60
2015,06,18,14,16,20.50
2015,06,18,14,17,20.40
2015,06,18,14,18,20.30
2015,06,18,14,19,20.30
2015,06,18,14,20,20.30
2015,06,18,14,21,20.30
2015,06,18,14,22,20.20
2015,06,18,14,23,20.20
2015,06,18,14,24,20.20
2015,06,18,14,25,20.20
2015,06,18,14,26,20.20
2015,06,18,14,27,20.20
2015,06,18,14,28,20.20
2015,06,18,14,29,20.20
2015,06,18,14,30,20.20
2015,06,18,14,31,20.20
2015,06,18,14,32,20.30
2015,06,18,14,33,20.20
2015,06,18,14,34,20.20
2015,06,18,14,35,20.20
2015,06,18,14,36,20.10
2015,06,18,14,37,20.10
2015,06,18,14,38,20.00
2015,06,18,14,39,19.90
2015,06,18,14,40,19.90
2015,06,18,14,41,19.80
2015,06,18,14,42,19.70
2015,06,18,14,43,19.60
2015,06,18,14,44,19.50
2015,06,18,14,45,19.40
2015,06,18,14,46,19.30
2015,06,18,14,47,19.30
2015,06,18,14,48,19.30
2015,06,18,14,49,19.30
2015,06,18,14,50,19.20
2015,06,18,14,51,19.20
2015,06,18,14,52,19.10
2015,06,18,14,53,19.10
2015,06,18,14,54,19.10
2015,06,18,14,55,19.10
2015,06,18,14,56,19.10
2015,06,18,14,57,19.10
2015,06,18,14,58,19.10
2015,06,18,14,59,19.10
2015,06,18,15,00,19.00
2015,06,18,15,01,18.90
2015,06,18,15,02,18.90
2015,06,18,15,03,18.90
2015,06,18,15,04,18.80
2015,06,18,15,05,18.70
2015,06,18,15,06,18.60
2015,06,18,15,07,18.60
2015,06,18,15,08,18.50
2015,06,18,15,09,18.50
2015,06,18,15,10,18.40
2015,06,18,15,11,18.40
2015,06,18,15,12,18.40
2015,06,18,15,13,18.30
2015,06,18,15,14,18.20
2015,06,18,15,15,18.20
2015,06,18,15,16,18.20
2015,06,18,15,17,18.20
2015,06,18,15,18,18.20
2015,06,18,15,19,18.30
2015,06,18,15,20,18.30
2015,06,18,15,21,18.30
2015,06,18,15,22,18.30
2015,06,18,15,23,18.30
2015,06,18,15,24,18.30
2015,06,18,15,25,18.30
2015,06,18,15,26,18.30
2015,06,18,15,27,18.30
2015,06,18,15,28,18.30
2015,06,18,15,29,18.30
2015,06,18,15,30,18.30
2015,06,18,15,31,18.30
2015,06,18,15,32,18.30
2015,06,18,15,33,18.30
2015,06,18,15,34,18.30
2015,06,18,15,35,18.30
2015,06,18,15,36,18.30
2015,06,18,15,37,18.20
2015,06,18,15,38,18.00
2015,06,18,15,39,17.90
2015,06,18,15,40,17.90
2015,06,18,15,41,17.80
2015,06,18,15,42,17.70
2015,06,18,15,43,17.70
2015,06,18,15,44,17.50
2015,06,18,15,45,17.40
2015,06,18,15,46,17.30
2015,06,18,15,47,17.30
2015,06,18,15,48,17.10
2015,06,18,15,49,17.10
2015,06,18,15,50,17.00
2015,06,18,15,51,17.00
2015,06,18,15,52,17.00
2015,06,18,15,53,16.90
2015,06,18,15,54,16.80
2015,06,18,15,55,16.70
2015,06,18,15,56,16.70
2015,06,18,15,57,16.60
2015,06,18,15,58,16.60
2015,06,18,15,59,16.60
2015,06,18,16,00,16.50
2015,06,18,16,01,16.40
2015,06,18,16,02,16.40
2015,06,18,16,03,16.40
2015,06,18,16,04,16.40
2015,06,18,16,05,16.30
2015,06,18,16,06,16.30
2015,06,18,16,07,16.20
2015,06,18,16,08,16.10
2015,06,18,16,09,16.10
2015,06,18,16,10,16.10
2015,06,18,16,11,16.00
2015,06,18,16,12,15.90
2015,06,18,16,13,15.80
2015,06,18,16,14,15.80
2015,06,18,16,15,15.80
2015,06,18,16,16,15.70
2015,06,18,16,17,15.70
2015,06,18,16,18,15.60
2015,06,18,16,19,15.60
2015,06,18,16,20,15.50
2015,06,18,16,21,15.50
2015,06,18,16,22,15.50
2015,06,18,16,23,15.40
2015,06,18,16,24,15.40
2015,06,18,16,25,15.40
2015,06,18,16,26,15.40
2015,06,18,16,27,15.30
2015,06,18,16,28,15.30
2015,06,18,16,29,15.20
2015,06,18,16,30,15.10
2015,06,18,16,31,15.10
2015,06,18,16,32,15.00
2015,06,18,16,33,15.00
2015,06,18,16,34,14.90
2015,06,18,16,35,14.80
2015,06,18,16,36,14.70
2015,06,18,16,37,14.60
2015,06,18,16,38,14.50
2015,06,18,16,39,14.40
2015,06,18,16,40,14.40
2015,06,18,16,41,14.30
2015,06,18,16,42,14.20
2015,06,18,16,43,14.20
2015,06,18,16,44,14.20
2015,06,18,16,45,14.10
2015,06,18,16,46,14.10
2015,06,18,16,47,14.10
2015,06,18,16,48,14.10
2015,06,18,16,49,14.00
2015,06,18,16,50,14.00
2015,06,18,16,51,14.00
2015,06,18,16,52,14.00
2015,06,18,16,53,14.00
2015,06,18,16,54,14.00
2015,06,18,16,55,14.00
2015,06,18,16,56,13.90
2015,06,18,16,57,13.90
2015,06,18,16,58,13.90
2015,06,18,16,59,13.90
2015,06,18,17,00,13.90
2015,06,18,17,01,13.80
2015,06,18,17,02,13.80
2015,06,18,17,03,13.80
2015,06,18,17,04,13.80
2015,06,18,17,05,13.80
2015,06,18,17,06,13.80
2015,06,18,17,07,13.80
2015,06,18,17,08,13.80
2015,06,18,17,09,13.70
2015,06,18,17,10,13.70
2015,06,18,17,11,13.70
2015,06,18,17,12,13.80
2015,06,18,17,13,13.80
2015,06,18,17,14,13.70
2015,06,18,17,15,13.70
2015,06,18,17,16,13.70
2015,06,18,17,17,13.70
2015,06,18,17,18,13.70
2015,06,18,17,19,13.70
2015,06,18,17,20,13.70
2015,06,18,17,21,13.70
2015,06,18,17,22,13.70
2015,06,18,17,23,13.70
2015,06,18,17,24,13.70
2015,06,18,17,25,13.70
2015,06,18,17,26,13.70
2015,06,18,17,27,13.70
2015,06,18,17,28,13.70
2015,06,18,17,29,13.60
2015,06,18,17,30,13.60
2015,06,18,17,31,13.50
2015,06,18,17,32,13.50
2015,06,18,17,33,13.50
2015,06,18,17,34,13.50
2015,06,18,17,35,13.50
2015,06,18,17,36,13.50
2015,06,18,17,37,13.50
2015,06,18,17,38,13.40
2015,06,18,17,39,13.40
2015,06,18,17,40,13.40
2015,06,18,17,41,13.30
2015,06,18,17,42,13.30
2015,06,18,17,43,13.30
2015,06,18,17,44,13.30
2015,06,18,17,45,13.30
2015,06,18,17,46,13.20
2015,06,18,17,47,13.20
2015,06,18,17,48,13.20
2015,06,18,17,49,13.20
2015,06,18,17,50,13.20
2015,06,18,17,51,13.30
2015,06,18,17,52,13.30
2015,06,18,17,53,13.30
2015,06,18,17,54,13.30
2015,06,18,17,55,13.30
2015,06,18,17,56,13.30
2015,06,18,17,57,13.30
2015,06,18,17,58,13.30
2015,06,18,17,59,13.30
2015,06,18,18,00,13.30
2015,06,18,18,01,13.30
2015,06,18,18,02,13.30
2015,06,18,18,03,13.30
2015,06,18,18,04,13.30
2015,06,18,18,05,13.40
2015,06,18,18,06,13.40
2015,06,18,18,07,13.40
2015,06,18,18,08,13.50
2015,06,18,18,09,13.50
2015,06,18,18,10,13.50
2015,06,18,18,11,13.50
2015,06,18,18,12,13.60
2015,06,18,18,13,13.60
2015,06,18,18,14,13.70
2015,06,18,18,15,13.70
2015,06,18,18,16,13.70
2015,06,18,18,17,13.80
2015,06,18,18,18,13.90
2015,06,18,18,19,14.00
2015,06,18,18,20,14.00
2015,06,18,18,21,14.10
2015,06,18,18,22,14.20
2015,06,18,18,23,14.20
2015,06,18,18,24,14.20
2015,06,18,18,25,14.20
2015,06,18,18,26,14.20
2015,06,18,18,27,14.30
2015,06,18,18,28,14.30
2015,06,18,18,29,14.30
2015,06,18,18,30,14.30
2015,06,18,18,31,14.40
2015,06,18,18,32,14.40
2015,06,18,18,33,14.40
2015,06,18,18,34,14.40
2015,06,18,18,35,14.40
2015,06,18,18,36,14.40
2015,06,18,18,37,14.40
2015,06,18,18,38,14.50
2015,06,18,18,39,14.50
2015,06,18,18,40,14.50
2015,06,18,18,41,14.60
2015,06,18,18,42,14.60
2015,06,18,18,43,14.60
2015,06,18,18,44,14.70
2015,06,18,18,45,14.70
2015,06,18,18,46,14.80
2015,06,18,18,47,14.80
2015,06,18,18,48,14.80
2015,06,18,18,49,14.80
2015,06,18,18,50,14.80
2015,06,18,18,51,14.80
2015,06,18,18,52,14.70
2015,06,18,18,53,14.60
2015,06,18,18,54,14.60
2015,06,18,18,55,14.60
2015,06,18,18,56,14.50
2015,06,18,18,57,14.50
2015,06,18,18,58,14.50
2015,06,18,18,59,14.50
2015,06,18,19,00,14.50
2015,06,18,19,01,14.50
2015,06,18,19,02,14.40
2015,06,18,19,03,14.40
2015,06,18,19,04,14.40
2015,06,18,19,05,14.40
2015,06,18,19,06,14.40
2015,06,18,19,07,14.30
2015,06,18,19,08,14.20
2015,06,18,19,09,14.20
2015,06,18,19,10,14.20
2015,06,18,19,11,14.20
2015,06,18,19,12,14.10
2015,06,18,19,13,14.00
2015,06,18,19,14,14.00
2015,06,18,19,15,13.90
2015,06,18,19,16,13.90
2015,06,18,19,17,13.90
2015,06,18,19,18,13.90
2015,06,18,19,19,13.80
2015,06,18,19,20,13.80
2015,06,18,19,21,13.80
2015,06,18,19,22,13.80
2015,06,18,19,23,13.80
2015,06,18,19,24,13.80
2015,06,18,19,25,13.80
2015,06,18,19,26,13.80
2015,06,18,19,27,13.80
2015,06,18,19,28,13.70
2015,06,18,19,29,13.70
2015,06,18,19,30,13.70
2015,06,18,19,31,13.60
2015,06,18,19,32,13.60
2015,06,18,19,33,13.60
2015,06,18,19,34,13.60
2015,06,18,19,35,13.50
2015,06,18,19,36,13.50
2015,06,18,19,37,13.50
2015,06,18,19,38,13.50
2015,06,18,19,39,13.50
2015,06,18,19,40,13.50
2015,06,18,19,41,13.40
2015,06,18,19,42,13.40
2015,06,18,19,43,13.40
2015,06,18,19,44,13.40
2015,06,18,19,45,13.40
2015,06,18,19,46,13.40
2015,06,18,19,47,13.30
2015,06,18,19,48,13.30
2015,06,18,19,49,13.30
2015,06,18,19,50,13.40
2015,06,18,19,51,13.40
2015,06,18,19,52,13.40
2015,06,18,19,53,13.40
2015,06,18,19,54,13.40
2015,06,18,19,55,13.40
2015,06,18,19,56,13.40
2015,06,18,19,57,13.40
2015,06,18,19,58,13.40
2015,06,18,19,59,13.40
2015,06,18,20,00,13.40
2015,06,18,20,01,13.40
2015,06,18,20,02,13.30
2015,06,18,20,03,13.30
2015,06,18,20,04,13.30
2015,06,18,20,05,13.30
2015,06,18,20,06,13.30
2015,06,18,20,07,13.30
2015,06,18,20,08,13.30
2015,06,18,20,09,13.30
2015,06,18,20,10,13.30
2015,06,18,20,11,13.30
2015,06,18,20,12,13.30
2015,06,18,20,13,13.30
2015,06,18,20,14,13.30
2015,06,18,20,15,13.30
2015,06,18,20,16,13.30
2015,06,18,20,17,13.30
2015,06,18,20,18,13.30
2015,06,18,20,19,13.30
2015,06,18,20,20,13.30
2015,06,18,20,21,13.30
2015,06,18,20,22,13.30
2015,06,18,20,23,13.40
2015,06,18,20,24,13.40
2015,06,18,20,25,13.40
2015,06,18,20,26,13.40
2015,06,18,20,27,13.40
2015,06,18,20,28,13.40
2015,06,18,20,29,13.40
2015,06,18,20,30,13.40
2015,06,18,20,31,13.40
2015,06,18,20,32,13.40
2015,06,18,20,33,13.40
2015,06,18,20,34,13.40
2015,06,18,20,35,13.40
2015,06,18,20,36,13.40
2015,06,18,20,37,13.40
2015,06,18,20,38,13.40
2015,06,18,20,39,13.40
2015,06,18,20,40,13.40
2015,06,18,20,41,13.40
2015,06,18,20,42,13.40
2015,06,18,20,43,13.40
2015,06,18,20,44,13.50
2015,06,18,20,45,13.40
2015,06,18,20,46,13.40
2015,06,18,20,47,13.40
2015,06,18,20,48,13.40
2015,06,18,20,49,13.40
2015,06,18,20,50,13.40
2015,06,18,20,51,13.40
2015,06,18,20,52,13.50
2015,06,18,20,53,13.50
2015,06,18,20,54,13.50
2015,06,18,20,55,13.50
2015,06,18,20,56,13.50
2015,06,18,20,57,13.50
2015,06,18,20,58,13.50
2015,06,18,20,59,13.50
2015,06,18,21,00,13.50
2015,06,18,21,01,13.50
2015,06,18,21,02,13.50
2015,06,18,21,03,13.50
2015,06,18,21,04,13.50
2015,06,18,21,05,13.50
2015,06,18,21,06,13.50
2015,06,18,21,07,13.50
2015,06,18,21,08,13.50
2015,06,18,21,09,13.40
2015,06,18,21,10,13.40
2015,06,18,21,11,13.40
2015,06,18,21,12,13.40
2015,06,18,21,13,13.40
2015,06,18,21,14,13.40
2015,06,18,21,15,13.30
2015,06,18,21,16,13.30
2015,06,18,21,17,13.30
2015,06,18,21,18,13.30
2015,06,18,21,19,13.30
2015,06,18,21,20,13.30
2015,06,18,21,21,13.30
2015,06,18,21,22,13.30
2015,06,18,21,23,13.30
2015,06,18,21,24,13.30
2015,06,18,21,25,13.30
2015,06,18,21,26,13.30
2015,06,18,21,27,13.30
2015,06,18,21,28,13.30
2015,06,18,21,29,13.30
2015,06,18,21,30,13.30
2015,06,18,21,31,13.30
2015,06,18,21,32,13.30
2015,06,18,21,33,13.30
2015,06,18,21,34,13.30
2015,06,18,21,35,13.30
2015,06,18,21,36,13.30
2015,06,18,21,37,13.30
2015,06,18,21,38,13.30
2015,06,18,21,39,13.30
2015,06,18,21,40,13.30
2015,06,18,21,41,13.30
2015,06,18,21,42,13.30
2015,06,18,21,43,13.30
2015,06,18,21,44,13.30
2015,06,18,21,45,13.30
2015,06,18,21,46,13.30
2015,06,18,21,47,13.30
2015,06,18,21,48,13.30
2015,06,18,21,49,13.30
2015,06,18,21,50,13.30
2015,06,18,21,51,13.30
2015,06,18,21,52,13.30
2015,06,18,21,53,13.30
2015,06,18,21,54,13.30
2015,06,18,21,55,13.20
2015,06,18,21,56,13.20
2015,06,18,21,57,13.20
2015,06,18,21,58,13.20
2015,06,18,21,59,13.20
2015,06,18,22,00,13.20
2015,06,18,22,01,13.30
2015,06,18,22,02,13.30
2015,06,18,22,03,13.20
2015,06,18,22,04,13.20
2015,06,18,22,05,13.20
2015,06,18,22,06,13.30
2015,06,18,22,07,13.20
2015,06,18,22,08,13.20
2015,06,18,22,09,13.20
2015,06,18,22,10,13.20
2015,06,18,22,11,13.20
2015,06,18,22,12,13.20
2015,06,18,22,13,13.20
2015,06,18,22,14,13.20
2015,06,18,22,15,13.20
2015,06,18,22,16,13.20
2015,06,18,22,17,13.20
2015,06,18,22,18,13.20
